Home   Weather   Stockholm   Past weeks

Flag for Sweden Past Weather in Stockholm, Sweden — Yesterday and Last 2 Weeks

Now
61 °F

Scattered clouds.


Feels Like: 61 °F
Forecast: 53 / 63 °F
Wind: 8 mph from South

Location: Stockholm Bromma Airport

Current Time: Sep 26, 2016 at 10:49:23 AM

Latest Report: Sep 26, 2016 at 10:20 AM


Visibility: N/A

Pressure: 30.24 "Hg

Humidity: 77%

Dew Point: 54 °F

Location of StockholmLocation

Past Weather in Stockholm — Graph

°F

Stockholm Temperature Yesterday

Maximum temperature yesterday: 64 °F (at 1:20 PM)
Minimum temperature yesterday: 48 °F (at 5:20 AM)
Average temperature yesterday: 57 °F

High & Low Weather Summary for the Past Weeks

 TemperatureHumidityPressure
High73 °F (Sep 13, 4:50 PM)100% (Sep 12, 5:50 AM)30.27 "Hg (Sep 12, 5:50 AM)
Low41 °F (Sep 17, 3:20 AM)33% (Sep 12, 5:50 PM)29.86 "Hg (Sep 11, 2:20 PM)
Average57 °F74%30.14 "Hg
* Reported Sep 11 9:20 AM — Sep 26 9:20 AM, Stockholm, Weather by CustomWeather, © 2016

Note: Actual official high and low records may vary slightly from our data, if they occured in-between our weather recording intervals... More about our weather records

Advertising

Stockholm Weather History for the Previous 24 Hours

Scroll right to see more
 ConditionsComfort  
Time TempWeatherWind HumidityBarometerVisibility
9:20 AM
Mon, Sep 26
59 °FPassing clouds.10 mph77%30.24 "HgN/A
8:50 AM59 °FPassing clouds.8 mph77%30.24 "HgN/A
8:20 AM57 °FSunny.5 mph82%30.24 "Hg10 mi
7:50 AM54 °FPassing clouds.3 mph94%30.24 "HgN/A
7:20 AM54 °FPassing clouds.5 mph88%30.21 "HgN/A
6:50 AM54 °FSunny.6 mph94%30.21 "Hg10 mi
6:20 AM54 °FClear.6 mph94%30.21 "Hg10 mi
5:50 AM52 °FClear.3 mph100%30.21 "Hg10 mi
5:20 AM52 °FCool.3 mph100%30.21 "HgN/A
4:50 AM52 °FPassing clouds.3 mph100%30.21 "Hg6 mi
4:20 AM50 °FLight fog.5 mph100%30.21 "Hg2 mi
3:50 AM50 °FLight fog.No wind100%30.21 "Hg0 mi
3:20 AM50 °FLight fog.1 mph100%30.21 "Hg0 mi
2:50 AM52 °FLight fog.3 mph100%30.21 "Hg0 mi
2:20 AM52 °FFog.3 mph94%30.21 "Hg0 mi
1:50 AM52 °FMostly cloudy.5 mph100%30.21 "Hg4 mi
1:20 AM54 °FOvercast.5 mph94%30.21 "HgN/A
12:50 AM54 °FOvercast.3 mph94%30.21 "HgN/A
12:20 AM55 °FOvercast.3 mph88%30.21 "HgN/A
11:50 PM
Sun, Sep 25
55 °FOvercast.3 mph94%30.21 "HgN/A
11:20 PM54 °FOvercast.2 mph100%30.21 "HgN/A
10:50 PM54 °FOvercast.3 mph94%30.21 "HgN/A
10:20 PM54 °FOvercast.3 mph94%30.21 "HgN/A
9:50 PM54 °FClear.5 mph94%30.21 "Hg10 mi
9:20 PM54 °FPassing clouds.3 mph94%30.18 "HgN/A
8:50 PM55 °FClear.3 mph88%30.18 "Hg10 mi
8:20 PM55 °FClear.5 mph82%30.18 "Hg10 mi
7:50 PM57 °FClear.5 mph77%30.18 "Hg10 mi
7:20 PM57 °FClear.6 mph77%30.18 "Hg10 mi
6:50 PM59 °FClear.6 mph72%30.18 "Hg10 mi
6:20 PM61 °FSunny.5 mph68%30.18 "Hg10 mi
5:50 PM63 °FSunny.7 mph64%30.18 "Hg10 mi
5:20 PM63 °FPassing clouds.6 mph64%30.18 "HgN/A
4:50 PM63 °FPassing clouds.6 mph59%30.18 "HgN/A
4:20 PM64 °FSunny.8 mph56%30.18 "Hg10 mi
3:50 PM64 °FSunny.6 mph56%30.18 "Hg10 mi
3:20 PM63 °FPassing clouds.7 mph59%30.18 "HgN/A
2:50 PM64 °FSunny.6 mph56%30.18 "Hg10 mi
2:20 PM64 °FSunny.9 mph56%30.18 "Hg10 mi
1:50 PM64 °FSunny.9 mph52%30.18 "Hg10 mi
1:20 PM64 °FSunny.9 mph56%30.18 "Hg10 mi
12:50 PM63 °FPassing clouds.9 mph59%30.18 "HgN/A
12:20 PM63 °FSunny.9 mph59%30.18 "Hg10 mi
11:50 AM63 °FSunny.10 mph59%30.18 "Hg10 mi
11:20 AM61 °FPassing clouds.9 mph63%30.18 "HgN/A
10:50 AM63 °FScattered clouds.9 mph59%30.18 "HgN/A
10:20 AM61 °FMostly cloudy.7 mph68%30.18 "HgN/A
Weather by CustomWeather, © 2016

See weather overviewHow to use our weather pages